Regional Weather Roundup
Issued by NWS Goodland, KS

Home | Current Version | Previous Version | Graphics & Text | Print | Product List | Glossary On
Versions: 1 2 3 4 5 6 7 8 9 10 11 12 13 14 15 16 17 18 19 20 21 22 23 24 25 26 27 28 29 30 31 32 33 34 35 36 37 38 39 40 41 42 43 44 45 46 47 48 49 50
000
ASUS43 KGLD 010908
RWRGLD

GOODLAND FORECAST AREA HOURLY WEATHER ROUNDUP
NATIONAL WEATHER SERVICE GOODLAND KS
300 AM MDT FRI AUG 01 2014

...OFFICIAL OBSERVATIONS...

CITY           SKY/WX    TMP DP  RH WIND       PRES   REMARKS
GOODLAND KS    CLEAR     60  52  74 W9        30.17S
HILL CITY KS   CLEAR     61  52  72 CALM      30.07F
IMPERIAL NEB   CLEAR     61  53  75 W6        30.15S
MCCOOK NEB     CLEAR     59  55  87 W7        30.12R
AKRON CO       CLEAR     61  55  81 W10       30.23S
BURLINGTON CO  CLEAR     59  52  77 W9        30.20F
LIMON CO       PTCLDY    51  50  96 N6        30.29S
$$

...UNOFFICIAL OBSERVATIONS...

CITY           SKY/WX    TMP DP  RH WIND       PRES   REMARKS
COLBY KS       CLEAR     61  55  82 W8        30.16S
GOVE KS          N/A     62  32  32 MISG        N/A
LENORA KS        N/A     67  32  27 MISG        N/A
NORTON KS      CLEAR     63  54  72 CALM      30.07F
OBERLIN KS     FAIR      59  54  82 NW7       30.12R
ST FRANCIS KS  CLEAR     59  54  82 SW5       30.17R
TRIBUNE KS     CLEAR     59 -15   4 SW9       30.19F
WAKEENEY KS      N/A     65  52  62 MISG        N/A
TRENTON NEB      N/A     66  32  28 S5          N/A
KIT CARSON CO    N/A     58  52  81 CALM        N/A
WRAY CO          N/A     61  54  77 W6        30.18S
YUMA CO          N/A     58  54  87 W5          N/A
$$



USA.gov is the U.S. government's official web portal to all federal, state and local government web resources and services.